Oconto, WI

3:21 PM CST on December 11, 2019 (GMT -0600)
Oconto Municipal

Weather History for KOCQ - October, 2019

Change the Weather History Date:

Friday, October 25, 2019

  Actual Average Record
Temperature  
Mean Temperature 36 °F -  
Max Temperature 46 °F 54 °F 64 °F (2014)
Min Temperature 25 °F 33 °F 24 °F (2013)
Degree Days  
Heating Degree Days 30    
Moisture  
Dew Point 26 °F    
Average Humidity 66    
Maximum Humidity 97    
Minimum Humidity 41    
Precipitation  
Precipitation 0.00 in - - ()
Sea Level Pressure  
Sea Level Pressure 30.26 in    
Wind  
Wind Speed 3 mph (WSW)    
Max Wind Speed 10 mph    
Max Gust Speed 17 mph    
Visibility 10 miles    
Events      
Averages and records for this station are not official NWS values.
T = Trace of Precipitation, MM = Missing Value Source: NWS Daily Summary

Daily Weather History Graph

Daily Weather History Graph

Search for Another Location

Airport or City:

Astronomy

Oct. 25, 2019 Rise Set
Actual Time 7:20 AM CDT 5:50 PM CDT
Civil Twilight 6:50 AM CDT 6:20 PM CDT
Nautical Twilight 6:15 AM CDT 6:54 PM CDT
Astronomical Twilight 5:41 AM CDT 7:28 PM CDT
Moon 3:50 AM CDT (10/25) 5:02 PM CDT (10/25)
Length of Visible Light 11h 30m
Length of Day
10h 30m
Waning Crescent, 9% of the Moon is Illuminated
Oct 25
Waning Crescent
Oct 27
New
Nov 4
First Quarter
Nov 12
Full
Nov 19
Last Quarter

Hourly Weather History & Observations

Time (CDT) Temp. Windchill Dew Point Humidity Pressure Visibility Wind Dir Wind Speed Gust Speed Precip Events Conditions
12:15 AM 39.2 °F 37.0 °F 30.9 °F 72% 30.33 in 10.0 mi West 3.5 mph - N/A   Overcast
12:35 AM 38.8 °F 36.5 °F 31.1 °F 74% 30.33 in 10.0 mi West 3.5 mph - N/A   Overcast
12:55 AM 38.3 °F 34.8 °F 31.6 °F 77% 30.33 in 10.0 mi West 4.6 mph - N/A   Overcast
1:15 AM 37.9 °F - 31.6 °F 78% 30.32 in 10.0 mi Calm Calm - N/A   Overcast
1:35 AM 37.9 °F 35.5 °F 31.3 °F 77% 30.33 in 10.0 mi West 3.5 mph - N/A   Overcast
1:55 AM 38.3 °F 35.9 °F 30.7 °F 74% 30.33 in 10.0 mi NW 3.5 mph - N/A   Overcast
2:15 AM 37.8 °F - 30.7 °F 76% 30.33 in 10.0 mi Calm Calm - N/A   Overcast
2:35 AM 37.2 °F - 30.4 °F 76% 30.33 in 10.0 mi Calm Calm - N/A   Overcast
2:55 AM 37.0 °F - 30.0 °F 76% 30.32 in 10.0 mi Calm Calm - N/A   Overcast
3:15 AM 35.2 °F 31.2 °F 29.3 °F 79% 30.32 in 10.0 mi West 4.6 mph - N/A   Overcast
3:35 AM 35.8 °F - 28.2 °F 74% 30.33 in 10.0 mi Calm Calm - N/A   Mostly Cloudy
3:55 AM 34.7 °F - 27.0 °F 73% 30.32 in 10.0 mi Calm Calm - N/A   Overcast
4:15 AM 34.0 °F - 27.3 °F 77% 30.32 in 10.0 mi Calm Calm - N/A   Overcast
4:35 AM 32.0 °F - 27.7 °F 84% 30.32 in 10.0 mi Calm Calm - N/A   Scattered Clouds
4:55 AM 29.8 °F - 27.1 °F 90% 30.33 in 10.0 mi Calm Calm - N/A   Clear
5:15 AM 28.6 °F - 26.8 °F 93% 30.33 in 10.0 mi Calm Calm - N/A   Clear
5:35 AM 28.9 °F - 27.1 °F 93% 30.33 in 10.0 mi Calm Calm - N/A   Clear
5:55 AM 27.5 °F - 26.4 °F 96% 30.33 in 10.0 mi Calm Calm - N/A   Clear
6:15 AM 27.3 °F - 26.1 °F 95% 30.34 in 10.0 mi Calm Calm - N/A   Clear
6:35 AM 25.7 °F - 24.8 °F 96% 30.33 in 10.0 mi Calm Calm - N/A   Clear
6:55 AM 26.6 °F - 25.5 °F 96% 30.33 in 10.0 mi Calm Calm - N/A   Clear
7:15 AM 27.1 °F - 26.4 °F 97% 30.33 in 10.0 mi Calm Calm - N/A   Clear
7:35 AM 27.0 °F - 26.2 °F 97% 30.34 in 10.0 mi Calm Calm - N/A   Clear
7:55 AM 26.1 °F - 24.6 °F 94% 30.34 in 10.0 mi Calm Calm - N/A   Clear
8:15 AM 29.5 °F 25.9 °F 27.9 °F 94% 30.34 in 10.0 mi West 3.5 mph - N/A   Clear
8:35 AM 32.9 °F - 28.2 °F 83% 30.34 in 10.0 mi Calm Calm - N/A   Clear
8:55 AM 35.8 °F 31.9 °F 27.9 °F 73% 30.34 in 10.0 mi WNW 4.6 mph - N/A   Clear
9:15 AM 37.8 °F 32.5 °F 26.4 °F 64% 30.34 in 10.0 mi West 6.9 mph - N/A   Clear
9:35 AM 39.0 °F 34.8 °F 25.9 °F 59% 30.34 in 10.0 mi West 5.8 mph - N/A   Clear
9:55 AM 40.3 °F 36.3 °F 25.2 °F 55% 30.32 in 10.0 mi West 5.8 mph - N/A   Clear
10:15 AM 41.2 °F 38.2 °F 24.1 °F 51% 30.32 in 10.0 mi WNW 4.6 mph - N/A   Clear
10:35 AM 41.7 °F 37.3 °F 23.4 °F 48% 30.31 in 10.0 mi WSW 6.9 mph - N/A   Clear
10:55 AM 42.4 °F 40.7 °F 23.0 °F 46% 30.31 in 10.0 mi WSW 3.5 mph - N/A   Clear
11:35 AM 43.5 °F 41.9 °F 23.7 °F 46% 30.31 in 10.0 mi South 3.5 mph - N/A   Clear
11:55 AM 43.3 °F 40.7 °F 23.2 °F 45% 30.31 in 10.0 mi WNW 4.6 mph - N/A   Clear
12:15 PM 43.5 °F 40.9 °F 23.5 °F 45% 30.30 in 10.0 mi SW 4.6 mph - N/A   Clear
12:55 PM 44.2 °F 39.2 °F 23.7 °F 44% 30.27 in 10.0 mi SW 9.2 mph - N/A   Clear
1:15 PM 45.0 °F 43.5 °F 23.9 °F 44% 30.26 in 10.0 mi WSW 3.5 mph - N/A   Clear
1:35 PM 45.0 °F 40.1 °F 24.4 °F 45% 30.26 in 10.0 mi WSW 9.2 mph - N/A   Clear
1:55 PM 45.5 °F 40.8 °F 24.8 °F 44% 30.25 in 10.0 mi WNW 9.2 mph 17.3 mph N/A   Clear
2:15 PM 45.3 °F 41.1 °F 24.4 °F 44% 30.23 in 10.0 mi West 8.1 mph - N/A   Clear
2:35 PM 45.5 °F 40.3 °F 24.4 °F 44% 30.22 in 10.0 mi WSW 10.4 mph - N/A   Clear
2:55 PM 46.2 °F 42.7 °F 24.8 °F 43% 30.21 in 10.0 mi SSW 6.9 mph - N/A   Clear
3:15 PM 46.0 °F 43.1 °F 23.4 °F 41% 30.20 in 10.0 mi SW 5.8 mph - N/A   Clear
3:35 PM 45.9 °F 41.2 °F 23.4 °F 41% 30.19 in 10.0 mi SW 9.2 mph - N/A   Clear
3:55 PM 45.9 °F 42.3 °F 23.4 °F 41% 30.19 in 10.0 mi WSW 6.9 mph - N/A   Clear
4:15 PM 46.4 °F 43.5 °F 24.4 °F 42% 30.19 in 10.0 mi SW 5.8 mph - N/A   Clear
4:35 PM 45.9 °F 42.9 °F 23.7 °F 42% 30.19 in 10.0 mi WSW 5.8 mph - N/A   Clear
5:15 PM 45.1 °F 42.8 °F 23.9 °F 43% 30.18 in 10.0 mi SSW 4.6 mph - N/A   Clear
5:35 PM 44.1 °F 41.5 °F 23.9 °F 45% 30.18 in 10.0 mi SSW 4.6 mph - N/A   Clear
5:55 PM 42.8 °F 41.1 °F 24.3 °F 48% 30.19 in 10.0 mi SSW 3.5 mph - N/A   Clear
6:15 PM 41.2 °F 39.2 °F 25.2 °F 53% 30.19 in 10.0 mi SSW 3.5 mph - N/A   Clear
6:35 PM 40.5 °F 38.4 °F 25.0 °F 54% 30.19 in 10.0 mi South 3.5 mph - N/A   Clear
6:55 PM 39.4 °F 36.1 °F 25.3 °F 57% 30.17 in 10.0 mi South 4.6 mph - N/A   Clear
7:15 PM 40.1 °F 38.0 °F 24.4 °F 54% 30.17 in 10.0 mi SSW 3.5 mph - N/A   Clear
7:35 PM 39.2 °F 37.0 °F 24.6 °F 56% 30.18 in 10.0 mi SW 3.5 mph - N/A   Clear
7:55 PM 39.0 °F - 24.6 °F 56% 30.17 in 10.0 mi Calm Calm - N/A   Clear
8:15 PM 37.9 °F - 24.8 °F 59% 30.17 in 10.0 mi Calm Calm - N/A   Clear
8:35 PM 38.1 °F 35.7 °F 24.6 °F 58% 30.17 in 10.0 mi SW 3.5 mph - N/A   Clear
8:55 PM 36.1 °F 33.5 °F 24.8 °F 63% 30.17 in 10.0 mi SW 3.5 mph - N/A   Clear
9:35 PM 35.1 °F 32.2 °F 25.3 °F 68% 30.18 in 10.0 mi SSW 3.5 mph - N/A   Clear
9:55 PM 34.7 °F - 25.0 °F 68% 30.17 in 10.0 mi Calm Calm - N/A   Clear
10:15 PM 34.2 °F - 25.3 °F 70% 30.17 in 10.0 mi Calm Calm - N/A   Clear
10:35 PM 32.4 °F 29.1 °F 26.2 °F 78% 30.17 in 10.0 mi SW 3.5 mph - N/A   Clear
10:55 PM 32.5 °F - 26.1 °F 77% 30.16 in 10.0 mi Calm Calm - N/A   Clear
11:15 PM 31.6 °F - 25.5 °F 78% 30.16 in 10.0 mi Calm Calm - N/A   Clear
11:35 PM 32.4 °F 29.1 °F 25.5 °F 76% 30.15 in 10.0 mi SW 3.5 mph - N/A   Clear
11:55 PM 29.3 °F - 25.0 °F 84% 30.15 in 10.0 mi Calm Calm - N/A   Clear